Regional Weather Roundup
Issued by NWS

Home | Current Version | Previous Version | Graphics & Text | Print | Product List | Glossary Off
Versions: 1 2 3 4 5 6 7 8 9 10 11 12 13 14 15 16 17 18 19 20 21 22 23 24 25 26 27 28 29 30 31 32 33 34 35 36 37 38 39 40 41 42 43 44 45 46 47 48 49 50

000
ASUS43 KMPX 160610
RWRMN
WEATHER ROUNDUP FOR MINNESOTA
NATIONAL WEATHER SERVICE TWIN CITIES/CHANHASSEN MN
1200 AM CST SAT DEC 16 2017


NOTE: "FAIR" INDICATES FEW OR NO CLOUDS BELOW 12,000 FEET WITH NO
SIGNIFICANT WEATHER AND/OR OBSTRUCTIONS TO VISIBILITY. N/A MEANS
CURRENT SKY AND/OR WEATHER CONDITIONS ARE NOT AVAILABLE.

MNZ060>063-068>070-160700-
   Twin Cities Metro

CITY           SKY/WX    TMP DP  RH WIND       PRES   REMARKS
TWIN CITIES    CLOUDY    30  29  96 E10       29.66F WCI  21
6HR MIN TEMP:  26; 6HR MAX TEMP:  30; 6HR PCP:  0.05;

ST PAUL        CLOUDY    29  27  92 SE7       29.69F WCI  22
CRYSTAL        CLOUDY    29  25  85 E6        29.65F WCI  23
BLAINE         CLOUDY    28  28 100 E5        29.66F WCI  23
LAKEVILLE        N/A     27  27 100 CALM      29.65F
EDEN PRAIRIE   MOCLDY    30  27  88 E6        29.63F WCI  24
6HR MIN TEMP:  29; 6HR MAX TEMP:  31; 6HR PCP: TRACE;

SOUTH ST PAUL  CLOUDY    30  29  98 SE3       29.67F
LAKE ELMO      MOCLDY    28  27  93 NE5       29.68F WCI  23
$$
MNZ001>005-007-008-013>017-022>024-027-028-160700-
   Northwest Minnesota

CITY           SKY/WX    TMP DP  RH WIND       PRES   REMARKS
BEMIDJI        LGT SNOW  16  13  90 E8        29.65F WCI   5
HALLOCK        CLOUDY    16  12  86 E16       29.66R WCI   0
ROSEAU         CLOUDY    10   7  85 E15       29.71S WCI  -6
WARROAD        FLURRIES   9   3  78 E13       29.72F WCI  -7
THIEF RVR FALL FLURRIES  16  13  88 E15       29.65R WCI   1
CROOKSTON      CLOUDY    19  18  93 E10G17    29.64R FOG     WCI   8
FOSSTON        LGT SNOW  16  14  93 E8        29.64R WCI   5
DETROIT LAKES  LGT SNOW  23  23 100 SE7       29.61S WCI  15
MOORHEAD       CLOUDY    28  25  86 CALM      29.60R
PARK RAPIDS    LGT SNOW  19  15  84 E8        29.62S FOG     WCI   9
MAHNOMEN       LGT SNOW  21  18  89 E10       29.61S WCI   9
$$
MNZ006-009>011-018-025>026-160700-
   North Central Minnesota

CITY           SKY/WX    TMP DP  RH WIND       PRES   REMARKS
BAUDETTE       CLOUDY     6   2  83 E14       29.72F WCI -11
FLAG ISLAND    CLOUDY     1  -4  78 E12       29.75F WCI -15
INTL FALLS     CLOUDY     4  -1  80 E7        29.77R WCI  -8
6HR MIN TEMP:   3; 6HR MAX TEMP:   6;

WASKISH        FLURRIES  12   9  85 E9        29.70F WCI   0
BIG FORK       LGT SNOW  12   9  85 E3        29.71R
LONGVILLE      LGT SNOW  18  16  93 E5        29.67S WCI  11
GRAND RAPIDS   LGT SNOW N/A N/A N/A E5        29.72R
CRANE LAKE     CLOUDY    -6  -8  92 CALM      29.81R
ORR            CLOUDY     5   0  78 E3        29.72S
COOK           CLOUDY     7   1  78 E5        29.74S WCI  -2
WALKER         LGT SNOW  17  14  89 E7        29.67R WCI   7
$$
MNZ012-019>021-037-160700-
   Northeast Minnesota

CITY           SKY/WX    TMP DP  RH WIND       PRES   REMARKS
DULUTH         LGT SNOW  14  12  92 E8        29.71F FOG     WCI   3
6HR MIN TEMP:  11; 6HR MAX TEMP:  14; 6HR PCP:  0.01;

ELY            CLOUDY     0  -4  85 NE3       29.76R
HIBBING        LGT SNOW  11   6  81 E5        29.72R WCI   3
EVELETH        FLURRIES  10   3  75 NE3       29.73F
DULUTH HARBOR  LGT SNOW  18  14  86 SE7       29.78F WCI   8
TWO HARBORS    CLOUDY    16   9  73 NE3       29.73F
G MARAIS ARPRT CLEAR     -6 -11  77 N6        29.73S WCI -18
$$
MNZ029>031-032-039>041-046>048-054>057-064-160700-
   West Central Minnesota

CITY           SKY/WX    TMP DP  RH WIND       PRES   REMARKS
FERGUS FALLS   CLOUDY    28  27  93 SE8       29.62R WCI  20
WHEATON        CLOUDY    28  27  93 SE8       29.60R WCI  20
MORRIS         CLOUDY    30  28  93 SE9       29.58F WCI  22
ALEXANDRIA     CLOUDY    27  25  92 SE9       29.60S WCI  18
ELBOW LAKE     MOCLDY    29  27  94 SE9       29.60R WCI  20
WADENA         LGT SNOW  21  19  93 E7        29.63R WCI  13
GLENWOOD       CLOUDY    27  27 100 E9        29.60F WCI  17
APPLETON       CLOUDY    32  28  86 SE6       29.59S WCI  26
BENSON         CLOUDY    30  27  86 SE6       29.62R WCI  24
ORTONVILLE     CLOUDY    30  28  93 SE7       29.58S WCI  23
MADISON        CLOUDY    34  30  86 S7        29.59R WCI  28
WILLMAR        FAIR      30  28  93 E6        29.62S WCI  24
$$
MNZ033>034-036-042>043-049>051-058-059-160700-
   Central Minnesota

CITY           SKY/WX    TMP DP  RH WIND       PRES   REMARKS
ST CLOUD       CLOUDY    23  21  92 E6        29.66R WCI  16
6HR MIN TEMP:  22; 6HR MAX TEMP:  24; 6HR PCP:  0.06;

SAUK CENTRE    CLOUDY    26  24  93 E7        29.62F WCI  18
PAYNESVILLE    CLOUDY    28  28  98 E7        29.63F WCI  21
PINE RIVER     CLOUDY    18  16  93 E7        29.70R WCI   8
BRAINERD       CLOUDY    20  16  84 E5        29.67S WCI  13
STAPLES        MIX PCPN  19  18  93 E3        29.64R
LITTLE FALLS   LGT SNOW  23  18  80 E5        29.65S WCI  17
LITCHFIELD     CLOUDY    28  28 100 E5        29.64R WCI  23
BUFFALO        CLOUDY    28  27  93 NE3       29.66S
MAPLE LAKE     CLOUDY    29  28  98 E5        29.67R WCI  23
HUTCHINSON     CLOUDY    30  29  94 E6        29.64R WCI  24
$$
MNZ037-044-045-052-053-160700-
   East Central Minnesota

CITY           SKY/WX    TMP DP  RH WIND       PRES   REMARKS
PRINCETON      LGT SNOW  23  21  93 NE5       29.67S WCI  17
MORA           LGT SNOW  19  18  93 E3        29.70F
CAMBRIDGE      LGT SNOW  25  19  80 NE3       29.69S
RUSH CITY      LGT SNOW  20  18  91 NE7       29.70F WCI  11
MOOSE LAKE     LGT SNOW  18  14  86 CALM      29.70F
HINCKLEY       LGT SNOW  19  18  93 E6        29.71F WCI  11
CLOQUET        LGT SNOW  16  10  79 E5        29.71F WCI   9
MCGREGOR       CLOUDY    19  18  93 E7        29.70S WCI  10
$$
MNZ071>073-080-081-089-090-097-098-160700-
   Southwest Minnesota

CITY           SKY/WX    TMP DP  RH WIND       PRES   REMARKS
MONTEVIDEO     CLOUDY    34  28  80 CALM      29.60R
GRANITE FALLS  CLOUDY    34  30  85 SE6       29.62R WCI  29
CANBY          CLOUDY    38  30  73 SW5       29.60R
MARSHALL       CLOUDY    39  28  64 W13       29.60R
REDWOOD FALLS  CLOUDY    34  29  82 CALM      29.61S
OLIVIA         CLOUDY    32  30  93 SE5       29.60S WCI  27
PIPESTONE      CLOUDY    32  27  80 SW7       29.60F WCI  26
WINDOM           N/A     37  21  52 SW6       29.61F
WORTHINGTON    CLOUDY    35  27  72 SW10      29.62F WCI  27
JACKSON        CLOUDY    36  28  75 SW12      29.62F
SLAYTON        CLOUDY    35  28  75 SW14      29.60S WCI  26
$$
MNZ065>067-074>077-082>085-091>093-160700-
   South Central Minnesota

CITY           SKY/WX    TMP DP  RH WIND       PRES   REMARKS
MANKATO        CLOUDY    35  27  72 S8        29.62F WCI  29
NEW ULM        CLOUDY    34  27  75 S9        29.60F WCI  26
ST JAMES       CLOUDY    36  27  69 S8        29.62F
FAIRMONT       CLOUDY    36  27  69 S9        29.63F
GLENCOE        MOCLDY    31  31 100 E6        29.63S WCI  25
FARIBAULT      PTCLDY    30  27  86 SE7       29.64F WCI  23
OWATONNA       PTCLDY    34  28  80 SE9       29.64F WCI  26
WASECA         CLOUDY    36  30  80 S9        29.64F
ALBERT LEA     CLOUDY    34  25  69 S6        29.64F WCI  29
$$
MNZ078>079-086>088-094>096-160700-
   Southeast Minnesota

CITY           SKY/WX    TMP DP  RH WIND       PRES   REMARKS
ROCHESTER      CLOUDY    29  27  92 S9        29.67F WCI  20
6HR MIN TEMP:  26; 6HR MAX TEMP:  30;

RED WING       MOCLDY    30  27  86 SE9       29.68F WCI  22
STANTON        PTCLDY    32  28  85 CALM      29.64F
DODGE CENTER   CLOUDY    28  27  93 SE8       29.65F WCI  20
WINONA         CLOUDY    30  30 100 SE6       29.72F WCI  24
AUSTIN         CLOUDY    34  25  69 S5        29.66F WCI  30
PRESTON        CLOUDY    30  26  83 S7        29.69F WCI  23
$$
ABBREVIATIONS USED IN REMARKS
   TC - TEMPERATURES IN CELSIUS
  WCI - WIND CHILL INDEX
   HX - HEAT INDEX
  VSB - VISIBILITY
$$



USA.gov is the U.S. government's official web portal to all federal, state and local government web resources and services.